Theta_e
327 320 318 317 304 302 298 300 306 307 306 310 313 309 308 314 312 309 332 333 334 340 343 344 347 349 348 350 349 348 347 345 342 341 342 341 341 339 341 340 341 339 339 339 340 338 339 338 339
316 318 316 312 299 294 294 303 303 307 310 312 309 307 308 312 324 326 327 332 334 338 339 342 345 347 347 348 349 347 347 346 342 341 341 339 341 340 341 339 338 339 338 337 338 337 337 337 338
318 316 310 305 300 295 295 302 305 309 312 310 306 309 310 314 325 327 332 331 336 336 339 342 344 346 346 347 348 347 347 346 342 340 341 341 339 341 341 342 339 338 338 336 337 337 336 336 338
314 312 310 300 297 299 300 302 307 307 307 310 307 307 316 324 326 331 333 334 336 339 341 342 345 346 346 347 347 348 347 346 342 339 340 340 338 338 341 341 339 337 336 336 335 335 334 335 337
312 310 301 299 299 299 300 307 307 306 306 307 305 304 313 325 331 332 332 335 335 339 340 341 343 344 345 345 346 347 347 346 343 339 339 340 338 338 340 340 338 336 335 334 334 333 333 337 336
305 307 298 296 298 300 300 305 306 305 304 305 301 307 315 327 328 329 332 334 335 337 337 339 337 340 342 343 344 345 346 345 343 340 338 338 338 338 337 339 338 336 336 335 333 333 334 335 334
304 303 298 298 299 298 301 305 303 302 302 303 304 303 316 322 329 330 330 333 335 338 336 337 338 337 336 339 340 342 344 342 341 340 339 338 338 338 336 337 340 337 336 333 332 334 334 333 332
305 303 299 299 299 298 303 304 304 302 302 307 310 302 309 321 329 330 329 331 334 336 335 334 335 336 336 335 333 336 339 339 338 336 333 331 332 332 331 330 335 338 335 334 333 334 333 332 330
309 299 296 299 300 299 304 301 303 303 303 303 307 309 319 327 329 327 326 329 333 334 335 335 334 333 334 334 330 331 333 333 331 330 328 326 327 328 326 327 331 335 336 335 333 332 331 329 327
301 298 300 304 303 301 303 302 302 298 300 301 305 313 325 326 326 324 324 326 329 331 334 336 335 333 333 334 331 333 334 334 333 331 327 329 326 325 326 323 326 330 331 332 331 328 329 326 322
301 299 303 302 303 304 303 301 303 299 298 301 304 312 321 323 324 324 324 326 327 331 332 335 335 335 335 332 331 331 330 331 331 331 330 327 325 323 324 322 321 320 321 323 324 321 321 321 320
297 301 301 304 303 303 302 303 299 300 298 304 306 315 320 320 321 322 324 325 327 330 332 333 334 335 334 334 331 332 330 330 330 330 330 326 323 321 322 322 322 321 320 321 321 320 318 318 319
299 299 301 302 301 300 304 301 298 299 302 304 307 314 317 319 320 321 323 326 327 329 331 333 335 334 335 334 333 334 332 330 330 329 329 327 323 321 322 322 322 321 321 320 318 317 317 317 318
301 300 299 300 301 300 300 297 297 300 302 302 305 306 312 316 318 320 320 322 325 329 330 333 333 335 335 335 334 333 332 332 329 329 328 327 324 322 321 321 321 320 320 319 318 316 316 316 318
300 296 296 297 298 298 298 295 296 298 302 301 301 301 305 311 316 317 320 321 323 327 330 331 332 334 333 334 334 334 333 332 331 329 329 327 325 322 321 320 320 319 320 318 317 316 316 316 317
296 295 291 296 297 297 297 291 299 300 298 298 298 298 301 304 310 315 320 322 323 325 326 330 332 332 333 334 334 334 334 333 332 331 330 327 326 323 321 320 319 320 318 317 316 315 313 313 314
293 287 290 292 297 296 295 291 295 298 296 295 296 298 299 301 304 309 317 321 323 325 326 329 331 331 333 334 334 334 334 333 333 332 331 330 327 325 321 319 319 320 317 315 315 314 313 311 311
287 287 291 289 293 294 292 292 295 296 296 295 296 296 296 298 301 305 311 318 321 323 326 329 333 331 332 333 333 333 332 333 333 332 331 331 329 326 322 320 318 317 315 313 313 312 313 311 311
291 290 289 291 294 293 292 292 294 297 296 296 296 297 298 298 301 302 305 308 314 320 323 325 329 332 332 329 330 330 329 331 331 332 331 330 330 329 324 321 318 317 315 313 311 309 308 308 310
290 290 289 290 294 292 290 291 294 296 295 296 297 297 298 299 300 303 302 301 305 309 317 322 324 328 332 331 331 330 330 330 331 332 331 331 330 329 327 323 320 317 315 314 312 308 308 309 308
289 289 288 289 291 291 286 287 290 294 296 297 298 296 296 296 298 300 300 301 301 301 302 308 316 322 327 331 330 329 329 329 328 329 330 330 329 329 328 326 324 322 318 316 314 312 309 306 307
287 292 291 291 287 282 287 279 287 291 292 294 295 295 293 295 299 297 297 299 302 304 304 304 303 306 313 325 328 327 326 325 327 328 330 329 329 328 328 327 325 323 318 315 315 314 312 310 307
290 292 291 290 286 285 284 282 285 290 289 292 294 295 297 297 298 299 300 303 304 305 305 304 302 302 304 313 323 326 325 325 325 327 327 328 327 327 326 326 325 322 320 317 315 313 312 311 311
293 291 291 288 286 278 283 283 282 287 290 291 293 296 297 296 297 299 301 303 303 304 306 308 301 301 303 309 314 321 323 322 320 321 324 325 325 325 325 325 324 323 321 318 316 315 314 313 312
291 287 279 278 277 277 283 282 285 289 290 293 292 296 297 298 298 299 299 300 301 302 303 306 310 306 305 308 312 315 318 319 322 321 320 321 323 322 323 323 322 322 321 320 319 318 316 315 312
288 287 281 274 276 278 281 279 285 290 292 293 294 297 298 298 298 298 299 299 300 301 302 304 306 310 311 311 311 313 314 315 317 318 318 319 319 320 319 321 321 321 321 321 319 318 316 314 312
287 284 288 281 275 278 280 284 289 290 290 291 292 296 296 296 297 297 298 298 298 298 300 301 302 303 307 313 312 310 311 312 312 315 315 314 314 312 313 314 315 315 315 315 315 314 313 312 311
289 290 282 282 271 271 278 280 282 287 289 290 292 295 295 295 296 296 296 297 297 298 298 299 300 300 301 302 302 302 304 305 306 305 303 304 305 305 304 304 305 306 309 309 310 309 309 309 309
286 285 286 286 284 277 275 279 285 289 291 290 292 295 294 295 295 295 296 296 296 296 295 295 296 297 297 297 298 297 298 298 298 298 298 298 299 300 300 300 301 301 302 302 302 303 304 304 305
288 287 287 281 279 280 281 281 291 290 293 294 295 295 296 296 296 295 295 295 294 294 294 293 294 294 295 296 295 295 295 294 294 294 294 294 295 296 296 296 296 296 297 297 297 297 297 299 299
Wind_Speed
12 10 4 3 2 3 2 4 5 6 5 4 9 6 10 10 6 7 6 17 15 16 12 10 10 11 10 11 12 11 14 16 15 15 15 15 14 14 19 18 15 16 16 17 16 16 16 16 16
7 11 2 4 3 4 3 8 4 6 8 9 3 1 7 7 6 11 5 13 12 15 12 11 11 10 9 9 9 11 13 15 15 14 14 14 14 14 16 18 15 15 17 17 17 17 17 17 17
9 8 2 3 5 3 3 8 7 10 7 5 4 3 6 5 9 10 11 13 13 11 13 11 12 11 9 9 11 13 14 15 15 14 14 15 14 15 15 17 14 15 16 16 17 17 16 15 15
4 2 3 3 8 2 6 6 13 8 4 5 4 9 6 4 7 10 12 14 13 13 13 10 12 11 11 11 10 10 15 14 15 15 14 14 13 13 12 15 16 13 14 15 16 15 14 14 14
3 4 3 6 10 5 3 8 10 7 8 6 2 6 7 4 10 13 12 11 11 15 12 9 11 11 10 11 10 10 14 15 15 14 13 13 13 12 11 12 15 13 13 14 13 13 13 14 12
3 2 3 6 8 7 3 6 7 6 7 6 1 8 6 8 8 10 10 10 10 15 11 10 9 9 9 9 10 9 10 15 14 13 12 12 12 11 11 10 13 13 12 14 12 11 11 13 12
2 3 7 9 5 5 5 4 4 5 5 6 2 5 7 8 9 9 9 10 9 14 11 9 7 7 8 8 9 9 10 13 13 12 11 10 9 10 9 9 9 14 13 14 11 9 13 12 10
2 1 9 10 6 5 7 5 2 4 5 3 6 3 7 9 11 9 8 8 9 12 12 9 9 7 6 5 7 9 9 11 11 11 10 9 9 10 8 7 7 13 14 12 10 10 12 10 8
3 1 7 13 5 6 9 5 3 2 7 2 4 4 12 13 10 9 7 8 7 8 11 10 9 7 7 7 6 7 9 10 10 8 8 8 4 5 5 7 4 11 12 12 11 8 9 9 5
4 3 8 7 5 10 9 8 7 3 6 4 6 4 12 11 8 12 10 9 8 9 8 10 11 8 9 9 7 6 6 5 5 6 6 4 5 4 5 6 7 8 10 9 8 4 6 6 4
5 5 9 5 6 9 9 4 7 5 6 9 12 9 11 9 8 9 9 9 9 11 5 2 7 7 8 8 5 3 4 4 4 7 6 3 5 4 4 3 3 3 4 3 2 2 3 3 2
3 3 6 3 3 1 10 5 3 7 3 5 8 16 10 10 10 9 9 9 9 11 8 5 3 5 7 5 5 5 4 4 4 5 6 3 3 3 4 4 4 4 3 4 4 3 0 2 3
5 5 2 6 3 2 7 5 2 5 8 8 9 13 11 9 9 9 9 8 9 10 12 9 6 5 6 5 5 5 5 4 5 5 5 5 4 4 3 4 4 4 4 3 2 2 1 2 2
9 6 8 5 5 3 5 4 3 7 10 9 7 7 10 10 10 9 8 9 8 10 11 14 12 9 8 6 7 5 4 5 4 5 5 6 5 4 4 3 3 3 4 4 4 3 3 3 2
5 7 4 4 5 2 2 4 7 4 7 8 8 7 7 9 10 10 9 8 9 8 11 14 15 11 9 9 7 3 4 4 5 4 7 7 5 6 5 4 4 4 4 4 3 3 3 2 2
6 6 5 5 6 1 2 4 13 10 10 8 9 9 9 8 8 8 9 9 9 8 9 9 10 12 10 8 7 5 4 3 4 4 4 7 6 6 5 4 5 5 4 4 3 3 3 3 3
8 5 7 4 5 5 5 4 4 4 4 6 7 8 9 9 8 8 8 9 9 9 9 9 10 10 11 9 6 6 5 4 3 4 3 6 6 6 5 4 4 5 4 4 3 4 3 3 2
7 5 8 7 7 3 5 8 4 5 5 6 6 6 5 7 9 8 8 7 8 9 9 10 11 13 12 7 5 4 4 4 4 4 4 5 6 6 5 4 4 3 3 3 2 3 0 2 3
5 9 6 6 2 5 7 5 9 8 8 8 7 7 8 9 9 9 9 8 7 6 7 9 10 13 11 8 7 6 7 6 4 5 6 6 4 7 6 4 4 5 5 4 3 2 4 4 1
5 10 6 5 6 3 4 9 8 8 8 8 9 9 8 7 7 7 7 5 5 4 5 6 8 9 9 9 8 7 5 4 5 4 5 7 6 6 5 6 6 7 5 6 6 5 2 3 4
4 5 6 5 5 2 2 7 8 9 10 7 8 4 1 3 5 6 6 7 3 2 3 3 5 6 7 8 7 4 2 2 3 4 4 7 8 7 7 6 7 5 6 6 4 6 7 5 4
4 6 9 11 7 3 5 5 4 7 8 5 5 5 4 3 6 6 5 7 7 5 5 5 5 4 4 5 10 10 7 7 4 6 5 6 9 9 8 8 6 6 4 6 6 6 6 4 5
4 8 7 4 3 2 3 1 7 6 4 7 8 7 8 7 6 8 7 7 7 4 3 2 3 4 5 4 5 8 7 6 4 4 7 8 7 8 8 8 6 6 5 6 7 5 8 7 7
9 9 6 2 3 1 7 7 6 5 6 5 7 8 8 7 7 8 6 8 6 4 5 3 2 2 3 2 3 3 8 6 5 5 5 3 3 5 7 7 7 8 6 7 7 8 8 9 8
4 7 3 2 1 6 7 5 10 3 2 8 10 9 8 7 7 8 7 7 6 6 6 6 6 5 4 5 5 4 2 2 4 2 2 2 2 3 6 7 6 5 6 6 6 8 9 9 8
7 6 7 8 5 4 5 7 8 2 8 9 10 10 8 8 7 8 7 7 6 7 7 8 8 8 8 9 8 7 8 5 5 6 4 3 3 3 4 2 1 4 4 5 5 5 5 5 6
6 6 1 8 3 5 6 6 1 6 5 6 8 9 8 7 7 7 8 7 7 7 7 7 7 8 7 7 7 8 7 7 6 7 5 4 4 3 4 4 4 4 4 4 4 2 4 4 5
3 7 4 2 5 4 5 4 6 7 9 9 9 9 9 7 7 6 7 7 6 6 7 8 8 8 8 8 8 7 8 8 8 8 8 7 6 7 7 7 6 6 6 5 5 4 3 4 3
3 3 3 5 5 6 3 8 3 5 10 11 9 9 9 8 7 7 7 7 7 7 7 8 8 8 8 7 8 8 7 8 8 8 7 7 7 7 7 6 6 6 7 6 6 6 5 5 6
3 4 5 5 5 1 4 7 2 5 8 12 10 9 9 8 8 7 7 7 7 7 7 7 7 7 7 7 8 9 9 8 8 8 7 7 7 7 7 7 6 6 6 6 6 6 6 6 7
Wind_Direction
294 269 260 320 265 223 139 121 78 82 114 51 46 11 80 43 18 109 175 111 128 117 124 112 103 93 93 99 102 114 107 102 94 93 92 91 92 91 89 86 82 80 81 80 79 76 73 70 70
302 305 261 278 242 225 128 109 162 107 88 82 113 266 83 84 74 118 82 126 122 124 124 123 112 109 103 102 102 125 114 105 98 98 96 93 89 91 97 89 81 78 82 84 81 80 79 77 73
270 283 306 244 249 319 123 135 128 90 110 162 120 19 28 82 122 148 131 134 119 131 114 123 119 117 113 110 99 122 119 111 106 108 103 95 87 77 88 93 81 86 86 88 83 83 81 74 75
310 238 273 278 266 26 67 163 107 115 67 351 341 86 74 349 150 116 144 132 128 117 111 121 122 124 115 104 102 116 124 117 111 110 107 99 94 80 77 91 92 89 94 86 87 88 83 80 69
247 276 249 216 266 89 360 108 119 157 146 152 250 107 99 37 89 131 135 137 126 111 118 126 124 126 119 112 103 101 132 119 112 110 111 106 102 88 79 95 93 96 95 96 91 85 88 71 70
271 256 258 248 239 93 88 74 140 178 135 81 251 115 91 124 130 145 139 133 132 117 126 131 124 122 117 111 99 98 111 116 114 113 113 112 106 97 88 90 114 109 104 88 85 88 78 68 64
259 233 247 258 236 114 138 156 204 136 124 167 360 100 122 156 136 146 147 132 140 122 122 129 132 121 113 115 110 102 110 119 119 116 111 99 86 102 86 60 110 117 100 94 91 82 84 77 72
282 256 250 264 218 162 125 168 262 129 99 7 17 157 163 151 142 144 154 137 135 132 134 143 134 148 139 130 109 105 106 111 107 111 112 110 102 107 109 97 64 112 111 109 99 82 92 86 74
281 229 245 256 273 120 127 130 308 22 114 84 62 30 118 128 149 146 153 141 146 142 146 146 144 161 146 131 126 111 107 111 111 114 132 145 131 143 120 88 70 94 104 99 98 101 109 109 93
218 196 238 227 228 132 158 165 153 141 132 128 95 44 112 131 161 159 164 160 153 156 159 150 153 166 151 144 152 144 138 151 156 146 184 204 139 111 116 90 87 98 102 112 112 124 157 168 159
230 199 246 14 55 113 160 213 149 197 178 184 167 156 140 149 171 173 180 172 172 155 121 104 149 162 150 132 168 153 160 171 168 152 202 129 113 128 113 121 108 110 120 114 130 203 230 232 86
231 271 338 101 38 55 154 145 164 224 99 49 104 151 156 167 179 182 188 175 175 144 152 165 178 158 166 137 161 160 155 167 157 162 163 138 124 165 152 159 172 160 195 169 181 215 230 21 334
221 134 50 81 110 63 99 134 227 216 119 74 77 145 163 178 184 189 180 186 171 154 160 174 201 202 163 170 175 168 162 159 170 159 159 154 165 177 170 171 158 167 179 156 186 182 167 256 272
189 144 123 174 123 33 141 118 45 229 146 128 135 161 169 178 189 187 183 186 176 163 168 168 187 203 200 194 190 193 180 163 170 158 167 184 170 169 172 167 168 179 166 173 178 186 196 217 209
138 115 130 166 159 125 289 139 218 157 134 164 178 190 196 193 185 195 184 180 177 176 168 169 172 185 201 198 203 233 173 184 167 168 171 182 183 174 175 171 180 189 173 180 190 203 191 202 208
174 141 159 164 138 148 140 235 221 169 150 183 192 194 191 211 202 193 188 180 174 171 176 160 159 171 194 197 195 195 190 179 173 174 174 178 191 181 183 177 186 191 173 177 184 192 204 218 214
200 170 179 157 192 132 184 235 107 63 154 212 230 222 177 191 205 212 201 178 182 171 173 165 157 175 192 196 194 189 199 175 180 175 199 180 187 202 180 193 191 185 173 181 190 205 174 209 232
174 219 183 156 198 189 174 259 159 173 197 216 240 213 185 201 208 198 201 196 185 183 178 168 171 177 194 183 184 185 185 194 195 189 185 217 184 192 200 186 164 137 139 179 221 205 192 162 202
176 198 175 125 118 144 219 243 245 204 193 207 241 236 192 209 214 201 187 194 198 188 182 177 170 178 174 181 184 191 197 192 194 194 189 193 206 180 194 187 178 177 186 203 202 165 192 246 209
262 189 199 56 104 102 225 240 251 243 235 199 207 225 222 194 177 123 126 145 168 204 211 199 192 180 182 178 180 202 192 192 195 184 188 194 198 203 189 185 196 184 180 201 194 169 195 224 180
224 184 147 133 127 269 340 278 233 228 225 216 210 189 54 82 118 137 156 155 143 193 271 254 240 215 193 176 158 139 122 134 176 198 193 197 191 195 204 199 202 204 185 197 172 185 189 214 207
168 86 110 124 137 206 177 269 234 194 196 187 205 200 219 118 71 61 52 78 63 23 357 348 338 304 265 191 159 171 189 209 189 196 197 188 191 199 204 214 205 204 177 182 198 194 204 195 229
161 113 123 129 135 92 214 91 257 106 203 190 184 141 95 85 93 95 78 75 71 35 336 301 295 296 296 270 167 175 194 196 213 180 193 192 193 197 200 207 204 202 195 207 200 184 200 201 220
146 105 89 118 127 281 204 164 265 175 198 104 121 114 125 133 112 98 101 94 70 46 25 356 156 249 291 301 263 199 169 187 189 223 198 173 177 195 202 201 205 208 207 207 211 211 212 216 219
144 139 117 155 172 215 334 179 242 155 93 151 142 130 126 147 120 101 93 83 62 42 55 25 53 55 42 34 26 6 27 349 215 211 58 105 182 183 209 200 209 219 225 225 219 215 217 215 218
203 182 155 172 178 191 344 233 250 88 114 94 112 121 122 108 104 99 93 89 69 49 48 55 46 57 48 50 46 46 49 60 51 67 48 51 56 48 32 343 224 231 241 242 238 239 236 227 220
196 213 113 105 17 76 206 265 240 141 136 131 136 135 134 116 111 107 88 81 85 68 55 62 59 50 57 72 60 46 38 43 43 41 44 36 38 35 19 5 348 335 338 327 311 274 258 232 232
167 152 77 350 127 221 245 242 230 195 195 175 166 154 135 127 121 106 96 92 73 75 66 60 60 61 56 57 58 53 51 51 55 54 45 34 27 31 32 30 27 14 3 339 334 335 325 304 276
151 189 201 142 155 163 169 254 246 202 171 168 169 150 150 147 140 127 113 102 91 76 70 64 52 59 58 56 59 55 47 45 48 50 41 31 31 24 24 18 17 14 10 8 359 337 320 315 305
347 193 163 141 230 206 149 266 12 2 140 148 152 139 136 134 134 128 126 113 97 89 76 75 65 56 60 68 65 60 57 51 53 48 41 33 34 25 21 16 17 19 8 1 2 341 340 331 311